Location: Izdebno
(52.6670°N, 16.2170°E)
Time: 01:35:30
(UTC+02:00)

Altair - Pass Details

Date: 25 February 2024
Orbit: 1501 x 1682 km, 47.2° (Epoch: 23 April)

Event Time Altitude Azimuth Distance (km) Brightness Sun altitude
Rises 17:58:41 0° 281° (W) 4,767 11.8 -5.8°
Reaches altitude 10° 18:06:30 10° 241° (WSW) 3,836 10.9 -7.0°
Maximum altitude 18:07:09 10° 238° (WSW) 3,833 10.8 -7.1°
Drops below altitude 10° 18:07:49 10° 233° (SW) 3,844 10.6 -7.2°
Sets 18:15:51 0° 194° (SSW) 4,876 10.4 -8.4°
